Vertical_Velocity
5 9 6 2 1 1 2 3 3 3 2 2 1 2 3 5 3 3 2 2 2 2 1 1 1 1 -0 0 -0 -0 0 1 -0 0 1 2 -0 1 -0 -0 1 0 -1
3 4 6 1 -1 2 3 3 2 2 4 2 2 1 2 3 3 4 4 2 2 2 2 2 1 1 0 1 0 -0 -0 -0 -0 -1 1 -2 1 -1 -0 0 -1 -1 -0
-0 -5 1 6 3 2 4 4 6 6 7 4 4 -0 -1 -3 2 2 4 2 2 1 2 2 2 3 1 0 0 0 1 1 0 -0 -1 -1 -1 1 -0 -1 -0 0 0
2 -0 -5 -0 5 6 5 5 4 5 4 4 4 3 5 7 8 4 4 3 2 3 1 2 2 3 3 1 1 -1 -1 0 1 -0 0 1 0 -1 0 -0 -1 -1 -0
6 14 9 8 6 6 8 8 5 2 2 3 4 3 4 6 4 2 3 0 2 2 2 2 1 2 2 2 3 2 2 0 -0 -1 -2 -2 -2 -2 -1 -1 -1 -1 -2
5 7 8 8 10 4 5 5 5 7 4 3 3 4 6 6 4 4 1 1 2 2 3 2 1 3 2 2 3 1 2 1 0 -0 -2 -1 -1 -0 -0 -0 -1 -1 0
5 6 6 9 10 4 2 7 4 2 4 4 4 8 8 5 3 5 7 6 5 3 3 3 2 3 3 1 4 1 1 2 0 2 1 0 -0 0 0 0 0 -1 3
4 4 5 10 1 7 12 9 6 5 3 6 8 8 4 4 5 6 5 4 2 5 5 5 4 4 4 3 3 -0 -1 0 1 -1 0 -1 -1 0 1 -0 -2 -2 -2
3 2 4 5 7 7 5 5 7 5 4 5 3 2 5 2 3 4 1 -2 -3 0 2 -0 0 -0 2 1 3 1 1 0 0 -0 -0 -1 -1 -2 -1 -1 -2 -3 -4
1 1 4 5 7 6 4 4 2 2 3 3 2 5 4 6 7 8 7 3 1 4 3 4 2 2 1 3 0 1 1 1 0 -1 -0 -1 -0 -0 -0 -1 -2 -2 -5
-0 2 3 4 2 3 2 4 3 3 4 4 5 3 5 3 -0 3 6 5 5 3 2 1 2 1 1 2 1 1 2 0 -2 -1 -1 -1 -1 -0 -1 -2 -2 -2 -5
4 4 4 3 4 4 3 1 2 2 2 2 2 3 3 5 5 4 5 5 4 3 4 4 3 1 0 1 1 -1 -2 -1 -0 -2 -0 0 -3 0 -1 -2 -2 -2 -4
4 5 4 5 6 5 2 2 2 0 0 0 1 4 5 5 7 4 3 2 1 1 2 1 3 3 2 1 0 0 -0 0 -1 -2 -2 -1 -4 1 -2 -2 -1 -3 -3
0 0 4 4 5 5 5 5 3 4 3 4 3 2 1 1 2 0 1 3 3 3 4 4 2 2 -0 1 1 2 1 0 -1 -2 -1 -0 -2 -2 -2 -3 -1 -3 -3
1 2 1 1 1 2 3 3 3 4 4 3 3 1 1 4 3 1 1 2 4 4 4 1 2 2 1 2 2 0 -0 -1 -2 -2 -1 -0 -0 -1 -1 -4 0 -3 -4
-0 2 1 1 0 0 -1 -1 -3 0 -1 1 2 2 4 5 4 1 -1 0 2 3 0 -1 -1 -1 -1 3 -1 -1 -1 -2 -1 1 -0 -2 -3 -1 -2 -2 -4 -2 -0
-1 -1 -1 -1 -1 -1 -1 -2 -0 -1 -4 -4 -2 -0 1 0 1 1 2 3 1 4 1 2 1 -0 0 3 0 2 -3 -4 -1 0 -1 -3 -1 -1 -3 -1 -3 -1 -1
0 0 -0 0 1 1 -0 -0 -0 -1 -2 -4 -0 -0 -2 1 -1 -0 1 3 2 -0 -1 2 -0 -3 -1 3 3 3 -0 -3 -2 -2 -3 -2 1 1 -3 -2 -3 -1 -0
0 -0 -2 -1 -0 1 1 1 3 2 2 3 3 2 -1 -1 0 0 -0 1 -3 -2 0 -4 -2 -3 -2 4 4 2 -3 -4 -2 -1 -2 -3 -3 5 6 -2 -6 0 5
-1 -2 -2 -1 -1 -1 -4 -6 -4 -3 -1 -1 0 2 2 0 1 0 2 0 -0 -0 -0 0 -0 1 -3 5 3 4 -4 -7 -3 -0 -2 1 -4 0 4 -4 -5 -9 5
-0 0 1 -0 -0 -1 -2 0 -0 0 -3 -1 -2 -4 -5 -5 -3 -4 -2 -2 -1 -3 0 -2 2 -1 1 5 1 6 -4 -2 -3 -5 -2 -3 5 1 1 2 -5 -10 4
-0 2 -1 0 2 0 -2 0 1 0 0 -1 -1 -0 -0 -1 -1 -3 -1 -2 -3 -4 -2 -4 -3 -3 -2 0 5 5 0 2 -7 -1 0 -1 4 1 -1 1 3 -1 3
-2 -2 -3 0 2 2 -1 -0 2 -1 -1 -1 -0 0 1 1 2 2 2 -2 -1 -3 1 -4 -2 3 4 -1 4 -1 -0 -1 1 -4 -1 1 4 0 1 -2 -1 6 1
-2 -2 -2 -3 -2 -0 -0 -2 -1 -1 -2 -1 1 3 -1 2 4 2 -1 -1 0 0 0 -2 -4 -1 -2 -2 5 0 0 -2 -2 2 1 1 2 3 -4 -4 1 5 2
-1 -2 -1 -2 0 -2 -0 1 -2 -5 -3 -3 -0 1 -2 1 1 1 0 -2 0 -2 -2 -0 -2 -1 -3 1 -2 -3 -1 -0 -4 1 -5 -4 0 3 3 1 -0 1 2
-0 -1 -1 -3 1 -0 -0 1 -1 -4 -3 -2 -2 -2 -4 -1 -0 -2 1 5 -4 1 -0 2 0 -4 -6 1 2 -1 -2 -3 -2 -1 -2 2 3 -1 2 3 4 5 5
Height
3031 3034 3038 3042 3045 3047 3051 3056 3061 3064 3066 3069 3073 3077 3081 3085 3088 3091 3094 3097 3100 3103 3105 3108 3110 3111 3113 3115 3116 3117 3119 3121 3122 3124 3126 3127 3128 3129 3130 3131 3132 3133 3134
3023 3026 3030 3034 3037 3041 3044 3049 3053 3056 3060 3064 3068 3071 3075 3079 3082 3084 3087 3090 3093 3096 3098 3101 3103 3105 3106 3108 3110 3111 3113 3115 3116 3117 3119 3120 3122 3122 3124 3125 3126 3126 3127
3016 3019 3022 3026 3028 3032 3035 3040 3045 3049 3053 3057 3060 3063 3067 3070 3073 3077 3080 3083 3087 3090 3092 3094 3097 3099 3100 3102 3103 3105 3106 3108 3109 3111 3113 3113 3115 3116 3117 3118 3119 3119 3120
3007 3011 3013 3016 3019 3023 3027 3031 3036 3041 3045 3049 3052 3056 3061 3065 3068 3071 3074 3077 3080 3082 3085 3088 3091 3093 3095 3096 3098 3099 3100 3102 3103 3104 3105 3106 3108 3109 3111 3112 3113 3113 3113
2998 3002 3006 3010 3013 3016 3020 3024 3028 3032 3036 3041 3045 3049 3053 3056 3059 3062 3065 3069 3072 3075 3078 3081 3084 3086 3088 3090 3091 3093 3094 3095 3096 3097 3098 3099 3100 3101 3103 3103 3105 3106 3106
2987 2990 2995 3000 3005 3009 3012 3015 3018 3022 3027 3031 3036 3040 3044 3047 3050 3053 3057 3061 3064 3067 3071 3073 3076 3079 3081 3082 3084 3085 3087 3088 3089 3090 3091 3092 3093 3093 3094 3095 3096 3097 3099
2977 2981 2986 2990 2995 3000 3005 3008 3010 3014 3018 3023 3028 3031 3034 3036 3040 3044 3049 3052 3056 3060 3063 3065 3068 3070 3072 3074 3075 3077 3079 3080 3082 3083 3083 3084 3085 3086 3086 3087 3087 3089 3092
2968 2972 2976 2982 2987 2992 2995 2998 3001 3005 3009 3013 3017 3021 3024 3027 3031 3034 3039 3043 3047 3051 3053 3055 3058 3060 3062 3065 3066 3068 3069 3071 3072 3073 3074 3075 3075 3076 3077 3078 3078 3079 3080
2964 2967 2971 2976 2981 2987 2990 2993 2995 2996 3000 3004 3007 3010 3013 3016 3020 3024 3027 3030 3033 3037 3041 3043 3046 3049 3053 3055 3056 3058 3059 3061 3062 3063 3065 3066 3066 3067 3068 3068 3068 3068 3068
2961 2964 2966 2970 2975 2979 2982 2984 2986 2989 2991 2994 2997 3000 3004 3007 3011 3015 3018 3021 3024 3029 3033 3036 3038 3040 3042 3044 3046 3047 3049 3051 3053 3054 3056 3057 3057 3057 3057 3057 3057 3057 3056
2959 2960 2962 2964 2967 2970 2973 2976 2978 2981 2983 2986 2988 2991 2995 2998 3002 3006 3009 3013 3017 3020 3023 3026 3027 3029 3031 3033 3035 3037 3039 3040 3042 3043 3044 3045 3046 3046 3046 3046 3046 3045 3044
2956 2957 2957 2958 2961 2963 2966 2969 2970 2971 2974 2977 2979 2982 2986 2989 2993 2997 3000 3003 3006 3009 3011 3014 3016 3018 3020 3023 3024 3026 3027 3029 3030 3031 3032 3034 3033 3034 3035 3035 3035 3034 3033
2951 2952 2954 2955 2956 2957 2958 2960 2961 2962 2964 2965 2968 2971 2975 2978 2981 2985 2988 2991 2993 2995 2998 3001 3004 3006 3008 3010 3012 3013 3015 3017 3018 3019 3019 3021 3021 3022 3022 3022 3022 3021 3020
2952 2951 2951 2951 2952 2952 2953 2954 2955 2956 2958 2959 2960 2961 2963 2964 2966 2969 2973 2977 2980 2982 2985 2988 2990 2993 2995 2997 2999 3001 3003 3004 3005 3006 3006 3007 3008 3009 3009 3009 3009 3008 3007
2949 2949 2949 2949 2949 2950 2950 2950 2951 2951 2952 2954 2954 2955 2956 2957 2957 2957 2959 2962 2965 2968 2971 2973 2976 2979 2981 2984 2986 2987 2989 2991 2992 2993 2994 2995 2996 2996 2996 2996 2996 2995 2993
2947 2947 2946 2946 2946 2947 2947 2947 2947 2947 2948 2948 2948 2949 2950 2951 2952 2953 2954 2955 2956 2958 2959 2961 2963 2965 2967 2971 2972 2973 2975 2977 2978 2980 2982 2982 2982 2983 2983 2982 2981 2980 2979
2945 2945 2943 2943 2943 2942 2941 2941 2941 2941 2941 2941 2941 2941 2942 2942 2943 2945 2946 2948 2949 2951 2952 2954 2954 2956 2958 2960 2960 2961 2961 2962 2964 2966 2967 2968 2968 2968 2967 2968 2966 2964 2962
2941 2939 2938 2937 2937 2936 2935 2934 2934 2933 2933 2933 2933 2933 2933 2933 2934 2935 2936 2937 2938 2939 2941 2941 2943 2944 2946 2948 2948 2948 2947 2946 2947 2949 2951 2952 2953 2954 2952 2951 2950 2950 2948
2933 2931 2929 2928 2927 2926 2924 2924 2924 2923 2922 2922 2922 2923 2923 2923 2923 2924 2925 2925 2925 2926 2926 2927 2928 2929 2932 2934 2933 2933 2931 2931 2932 2933 2933 2934 2935 2937 2938 2934 2932 2934 2934
2925 2922 2920 2918 2916 2914 2912 2910 2909 2908 2908 2908 2908 2909 2909 2909 2909 2909 2910 2910 2910 2910 2911 2912 2913 2914 2915 2917 2917 2916 2914 2913 2915 2916 2917 2918 2917 2917 2917 2917 2917 2917 2920
2916 2913 2910 2908 2906 2904 2901 2899 2897 2895 2894 2894 2893 2892 2892 2891 2890 2891 2892 2892 2893 2893 2893 2894 2895 2896 2897 2897 2897 2898 2895 2895 2896 2897 2899 2901 2902 2901 2901 2900 2899 2902 2906
2907 2904 2900 2899 2897 2894 2890 2888 2887 2884 2882 2880 2879 2877 2877 2876 2875 2874 2874 2874 2874 2874 2874 2874 2874 2876 2876 2876 2876 2877 2877 2879 2878 2879 2881 2882 2885 2885 2888 2889 2889 2890 2892
2897 2894 2890 2889 2887 2883 2879 2876 2875 2873 2871 2870 2869 2867 2866 2864 2863 2860 2859 2858 2857 2856 2856 2855 2855 2856 2858 2858 2859 2857 2860 2862 2862 2863 2864 2867 2870 2871 2872 2874 2876 2878 2877
2886 2882 2879 2877 2876 2873 2870 2866 2863 2861 2859 2858 2856 2855 2854 2853 2852 2850 2848 2847 2846 2845 2843 2842 2841 2842 2842 2843 2843 2843 2843 2844 2846 2848 2849 2852 2854 2856 2857 2859 2862 2863 2864
2877 2873 2869 2866 2864 2861 2859 2856 2853 2850 2848 2847 2845 2843 2841 2840 2839 2838 2837 2834 2835 2833 2831 2831 2830 2829 2829 2831 2829 2828 2829 2830 2831 2833 2834 2837 2839 2841 2843 2845 2847 2850 2851
2867 2863 2860 2857 2855 2852 2849 2847 2844 2840 2838 2836 2834 2832 2830 2828 2826 2825 2826 2825 2822 2821 2820 2821 2820 2820 2819 2820 2820 2820 2821 2822 2823 2821 2822 2824 2825 2827 2830 2832 2834 2835 2837